User: anonymous   Login
Location: Caltech
(34.1382°N, 118.1253°W)
Time: 21:29:10
(UTC-08:00)
Language:

UOSAT-12 - Orbit

View from above orbital plane
View from above orbital plane
View from above satellite
View from above satellite

Ground track
Ground track

The orbit data is extracted from the following two-line orbital elements,

1 25693U 99021A   14330.52237806  .00000949  00000-0  14120-3 0  6732
2 25693 064.5565 122.4681 0049584 267.2508 152.1173 14.80162483841945
Epoch (UTC): 26 November 2014 12:32:13
Eccentricity: 0.0049584
inclination: 64.5565°
perigee height: 594 km
apogee height: 663 km
right ascension of ascending node: 122.4681°
argument of perigee: 267.2508°
revolutions per day: 14.80162483
mean anomaly at epoch: 152.1173°
orbit number at epoch: 84194

The dashed part of the orbit path shows where the satellite is in the earth's shadow,  

DLR